User: anonymous   Login
Location: Chandrammap?lem
(16.9200°N, 81.0051°E)
Time: 12:22:20
(UTC+00:00)
Language:

Cosmos 1943 Rocket - Orbit

View from above orbital plane
View from above orbital plane
View from above satellite
View from above satellite

Ground track
Ground track

The orbit data is extracted from the following two-line orbital elements,

1 19120U 88039B   24206.23018630  .00000090  00000-0  65597-4 0  9993
2 19120  71.0127 243.2624 0021601 176.4312 183.6971 14.19426839874438
Epoch (UTC): 24 July 2024 05:31:28
Eccentricity: 0.0021601
inclination: 71.0127°
perigee height: 812 km
apogee height: 843 km
right ascension of ascending node: 243.2624°
argument of perigee: 176.4312°
revolutions per day: 14.19426839
mean anomaly at epoch: 183.6971°
orbit number at epoch: 87443

The dashed part of the orbit path shows where the satellite is in the earth's shadow,  

DLR